Theta_e
301 300 300 300 300 300 300 300 299 297 298 298 298 299 299 298 306 307 306 306 307 309 307 308 310 309 309 309 308 310 306 307 308 309 310 313 311 316 316 316 316 321 326 328 332
298 298 299 300 300 299 300 300 299 297 298 299 299 299 298 303 310 309 307 307 307 307 309 308 310 309 308 309 309 307 304 306 307 309 309 310 311 312 312 312 314 327 328 329 331
297 297 297 298 298 298 299 300 298 296 296 298 299 299 298 305 312 308 306 306 306 306 306 310 310 310 308 309 309 308 305 307 309 310 311 310 310 311 310 310 313 314 331 331 331
298 298 297 296 297 298 298 298 296 295 295 296 298 298 298 302 307 305 305 305 303 303 303 306 310 309 308 308 310 308 308 309 310 311 311 309 311 309 310 310 311 312 315 325 328
297 298 296 296 296 297 297 296 294 295 296 296 297 297 298 305 304 305 304 303 305 303 302 303 309 308 309 308 306 307 308 310 310 310 311 311 308 308 309 310 311 311 315 318 326
297 296 297 296 297 296 295 294 294 295 296 296 296 296 298 302 302 303 302 304 306 305 305 305 305 305 309 308 306 307 308 308 309 309 309 309 309 308 309 310 310 310 311 317 321
296 298 296 297 297 294 293 293 294 296 296 296 297 297 300 301 303 300 297 300 305 305 304 305 305 305 306 308 309 309 306 305 307 308 307 310 308 305 310 310 309 310 310 315 317
296 296 297 296 296 293 293 294 295 296 296 298 298 301 301 302 298 297 298 299 297 299 303 304 305 304 305 307 307 308 306 306 307 307 308 308 309 308 310 309 309 309 310 310 313
296 295 296 296 295 293 294 294 296 296 297 300 301 301 301 299 297 296 294 298 298 299 298 304 305 304 306 307 306 307 302 303 304 306 307 306 308 308 310 310 308 309 309 309 311
296 295 295 293 292 294 295 294 296 297 297 301 299 296 296 295 297 298 294 297 294 297 299 299 304 303 303 305 304 304 305 305 305 305 306 306 307 307 310 308 308 309 309 309 310
295 295 294 292 291 294 295 294 294 295 294 293 293 295 295 297 298 294 294 294 293 296 297 299 296 299 300 300 302 306 306 306 306 306 306 306 306 307 308 308 308 309 310 308 309
294 295 294 292 293 295 295 295 295 293 293 295 293 295 296 296 297 294 294 294 293 293 294 294 295 295 295 298 298 299 300 303 306 307 307 307 306 307 307 307 308 309 310 311 309
294 294 293 292 295 295 295 295 295 295 293 295 294 297 295 294 296 294 294 293 293 293 293 292 293 294 294 293 294 296 299 300 303 304 306 307 308 307 305 306 308 310 310 311 311
294 294 293 292 294 295 293 292 293 293 287 295 295 297 293 293 295 294 294 293 293 293 292 292 294 293 292 293 293 293 296 300 302 304 307 306 310 308 306 306 306 308 308 309 310
293 293 292 292 292 295 294 292 293 295 289 293 296 295 293 293 293 294 294 293 293 292 293 292 292 293 293 293 294 294 295 297 299 303 305 306 310 309 307 308 308 308 308 309 309
292 291 291 292 294 294 292 292 295 287 286 292 296 293 292 293 294 293 293 293 293 293 292 292 293 293 294 295 295 295 296 298 299 303 306 305 308 308 308 308 308 308 309 310 310
291 291 292 293 293 292 292 293 286 287 291 292 293 292 292 292 293 293 292 291 290 287 291 292 293 292 294 295 295 295 296 298 301 305 304 304 307 308 306 306 307 307 308 310 311
290 291 293 294 293 291 293 286 284 283 292 293 292 292 292 292 292 291 291 289 291 291 290 290 291 293 294 293 293 294 295 297 303 301 302 304 307 307 307 308 308 308 308 308 311
290 292 293 293 291 292 293 283 284 292 293 293 291 291 289 292 290 290 290 290 291 291 288 290 291 292 292 293 294 296 299 298 301 300 302 305 306 306 306 306 306 307 308 307 308
290 291 293 292 291 292 286 287 286 293 293 292 290 288 290 291 289 288 289 290 291 292 291 287 292 293 293 295 295 296 297 302 302 302 303 307 308 307 306 306 306 306 306 307 309
289 291 293 291 291 291 283 279 291 293 292 288 290 292 289 286 288 289 290 291 291 292 292 292 292 292 294 294 295 295 299 301 303 304 303 303 307 305 306 306 305 305 306 306 309
289 287 292 292 290 290 282 282 292 292 291 291 290 287 291 290 284 284 290 288 292 292 291 293 293 294 292 293 295 296 300 300 302 302 304 305 305 306 306 305 305 305 306 307 306
289 289 291 291 282 280 286 286 292 291 291 291 289 290 284 289 289 284 282 291 291 288 287 291 293 291 290 293 297 295 297 298 301 300 302 305 303 304 306 306 305 305 307 307 307
289 285 291 291 291 288 285 286 285 292 291 292 291 291 287 285 288 288 289 289 291 291 292 292 290 292 291 293 294 294 295 295 297 300 299 304 305 304 305 306 305 305 306 308 307
289 289 290 283 287 289 289 287 288 289 291 291 286 288 286 290 284 288 289 288 291 291 291 290 289 290 291 292 292 293 293 294 295 297 299 304 306 305 305 306 306 307 307 308 308
288 288 288 288 288 287 287 285 290 291 290 290 289 290 289 288 289 290 290 291 290 291 290 287 289 290 291 292 291 292 293 296 300 303 304 304 304 304 306 305 304 305 307 308 308
288 288 288 288 287 283 283 288 289 290 290 291 291 290 290 290 291 291 291 291 291 291 291 290 286 286 287 289 290 294 297 300 299 301 302 304 305 305 307 304 302 302 302 302 306
Wind_Speed
20 21 21 21 21 21 22 22 23 23 22 22 23 23 21 19 10 10 9 11 14 15 14 9 1 6 2 6 7 3 1 4 5 7 8 21 4 4 2 3 4 2 4 6 23
20 20 20 21 22 23 23 23 23 23 23 22 22 22 21 14 10 16 13 12 12 14 15 13 10 7 3 4 5 5 4 8 7 4 4 10 2 6 7 6 4 8 8 12 22
21 21 22 23 23 23 24 24 23 21 22 22 21 21 19 9 10 12 15 16 15 15 12 9 8 9 5 8 7 6 6 5 12 21 17 8 14 5 3 5 6 3 17 21 22
22 23 23 23 23 24 25 26 24 21 20 21 22 20 14 9 4 11 16 19 16 16 13 10 7 4 3 4 11 7 13 16 9 21 24 5 10 10 7 15 15 11 8 18 23
21 23 24 23 24 24 25 25 24 21 19 18 19 16 13 10 8 13 17 17 18 17 13 10 8 8 4 10 16 9 7 20 28 27 27 23 12 11 15 22 20 15 11 18 24
23 23 24 24 25 25 25 24 23 23 18 13 12 9 9 6 8 14 13 13 18 19 18 14 6 12 11 6 5 14 21 21 20 21 17 10 17 15 15 22 26 29 24 20 22
21 22 23 24 26 26 25 23 22 20 15 8 9 7 11 8 9 13 21 12 10 11 15 10 15 7 11 6 11 15 9 11 15 11 7 14 15 10 35 28 30 31 27 25 25
23 23 24 25 26 26 25 23 20 15 7 6 12 9 6 5 13 17 26 23 17 13 11 11 7 9 5 9 12 6 6 5 4 7 11 16 23 7 23 31 35 39 38 32 32
24 24 25 26 26 26 27 21 13 7 12 6 9 6 5 6 18 24 28 25 24 22 11 5 5 3 3 3 5 3 6 11 13 13 9 12 15 15 30 26 27 34 39 41 33
24 24 24 25 25 25 29 18 9 7 6 9 3 4 11 13 13 19 27 13 29 19 8 13 2 3 3 1 4 5 7 10 12 5 9 16 19 14 15 20 24 30 34 38 40
22 24 24 24 22 24 29 15 17 5 17 6 9 3 6 12 10 19 22 17 23 18 7 9 5 3 11 11 17 17 20 25 20 18 21 21 18 16 22 25 20 25 28 33 43
21 23 24 22 16 19 20 20 13 8 8 12 9 8 7 13 3 26 21 15 16 8 15 6 5 12 19 15 17 15 17 19 18 12 13 21 24 22 16 15 25 29 34 30 26
22 21 22 20 8 13 12 16 8 8 2 5 7 7 13 14 4 23 20 16 6 8 9 5 13 14 17 20 18 17 17 18 19 19 22 21 27 18 12 13 22 32 36 39 36
21 22 21 20 6 15 13 15 10 4 4 3 2 4 19 17 3 14 17 12 8 10 7 4 9 17 19 22 16 24 12 19 19 13 12 11 14 18 11 17 18 29 32 35 40
20 21 19 14 12 11 16 14 9 2 4 6 3 6 13 11 13 7 14 15 6 9 1 5 16 19 20 22 16 27 20 21 21 20 15 17 13 23 13 24 30 20 31 38 41
22 21 17 13 5 10 13 12 1 5 2 4 5 6 11 14 9 14 16 15 18 4 7 8 20 8 14 16 18 17 19 23 23 14 14 27 16 15 19 32 13 19 28 37 40
20 20 12 12 12 13 8 8 5 6 4 4 5 6 6 4 7 7 6 8 2 6 12 14 4 18 12 18 11 13 15 8 6 11 20 15 14 25 8 11 21 20 26 39 47
21 16 9 10 16 10 6 5 7 5 3 5 5 9 2 7 5 8 8 6 6 5 10 7 20 11 11 13 16 23 11 7 10 10 20 12 14 20 15 22 41 38 38 32 36
21 14 9 10 13 7 4 5 6 2 2 4 6 3 5 5 3 6 5 4 4 6 1 5 16 28 23 22 14 3 7 14 13 23 14 7 15 25 24 27 21 24 34 32 32
24 14 8 11 9 6 5 1 0 6 5 3 1 3 3 5 4 5 3 5 9 8 8 6 16 17 21 21 12 16 11 5 6 8 11 8 15 10 11 24 23 28 21 33 40
21 8 8 9 10 6 3 5 3 7 11 3 2 3 3 3 1 5 5 8 6 14 14 8 4 24 7 4 19 13 9 6 8 7 6 13 9 6 15 4 5 4 10 9 14
15 4 7 11 5 1 1 3 5 6 8 5 4 4 4 4 3 2 5 4 17 13 9 3 5 9 24 29 20 15 7 9 5 8 6 7 20 3 7 6 6 5 9 13 13
13 5 6 4 2 3 6 4 4 2 2 3 2 3 1 3 4 4 4 10 23 2 4 5 2 11 24 8 6 12 13 14 10 9 13 10 13 29 8 1 10 7 13 12 13
7 4 4 4 3 1 2 5 3 4 7 5 5 6 2 4 5 6 7 9 16 18 22 11 4 7 13 20 20 19 24 21 14 8 15 13 18 25 20 13 8 13 14 12 10
6 3 5 3 4 9 8 3 11 9 10 15 4 4 5 6 3 6 5 6 18 16 8 2 11 11 16 21 24 23 24 26 19 18 10 16 14 22 11 7 4 10 11 10 11
3 3 6 16 14 2 7 4 13 11 3 8 4 12 6 7 11 14 11 15 10 19 7 4 7 18 22 17 16 20 26 18 16 12 10 16 19 3 5 11 16 20 16 12 9
6 10 6 7 2 1 4 6 13 17 17 18 15 15 16 18 20 25 25 25 18 16 20 8 3 4 8 12 18 8 11 15 16 13 16 14 13 5 3 13 12 18 20 20 16
Wind_Direction
16 12 9 5 4 2 0 358 357 357 356 354 353 352 2 358 27 42 38 14 353 338 332 316 310 329 253 255 237 236 55 243 229 215 253 283 6 308 173 208 314 347 149 181 181
4 2 1 1 358 356 354 352 353 353 350 349 348 350 2 17 74 45 28 351 332 337 348 356 343 328 274 240 221 164 176 225 213 216 273 291 297 319 347 342 313 92 138 167 178
2 359 354 352 350 349 346 345 351 350 344 344 344 347 3 37 89 26 349 324 323 327 344 351 356 322 281 264 235 213 206 244 278 287 301 293 309 320 335 297 259 156 178 181 189
359 355 352 349 349 346 343 342 349 344 341 337 339 345 6 24 79 357 330 332 330 322 322 334 347 353 281 272 272 268 246 245 269 281 295 279 279 291 254 251 285 282 249 222 211
356 357 350 350 346 343 342 343 346 343 341 332 333 348 7 74 28 327 325 357 356 344 348 346 352 5 1 313 324 281 270 264 266 267 264 285 257 245 260 266 263 277 265 236 223
358 353 352 350 346 343 344 344 341 336 341 333 342 6 22 81 25 5 357 12 354 8 14 5 309 320 284 276 283 312 310 294 294 294 298 273 269 246 251 260 261 259 258 237 224
358 356 350 351 344 346 344 345 337 337 341 6 17 41 66 61 14 343 340 353 355 2 346 354 341 291 321 309 323 315 312 312 284 267 254 292 276 221 249 251 252 249 249 228 226
357 353 352 348 348 349 346 347 332 345 39 27 46 70 87 64 350 346 7 8 346 322 304 330 308 286 254 292 325 329 310 305 272 220 240 204 251 221 246 242 240 244 242 240 229
354 357 352 352 350 352 348 349 341 39 357 76 50 49 88 326 14 20 13 12 6 9 6 1 288 204 326 339 330 265 256 249 283 239 263 202 256 256 242 248 245 244 243 240 233
354 354 353 354 355 357 351 0 12 76 40 77 91 104 28 353 17 6 7 6 7 5 25 359 347 61 17 91 255 289 287 288 276 301 239 258 257 264 251 232 245 247 249 243 237
351 352 351 358 358 9 2 21 38 19 35 13 318 316 10 21 54 10 9 6 14 32 16 334 56 354 351 335 306 283 274 275 283 285 300 290 285 263 240 249 259 262 256 248 240
348 351 351 1 7 25 12 51 34 1 325 37 56 41 27 359 328 6 4 22 23 18 3 14 302 344 324 332 324 303 299 298 300 309 266 280 272 273 245 229 224 242 255 253 241
348 347 350 1 31 22 22 17 6 342 276 341 103 61 29 348 349 351 7 33 27 5 353 327 282 325 341 323 322 307 294 299 289 312 301 290 281 265 266 247 233 237 245 250 247
347 348 353 356 12 10 7 353 346 347 70 152 138 36 22 350 73 0 20 45 11 325 338 332 333 319 297 287 302 292 298 304 298 297 277 352 284 255 242 247 245 239 239 242 244
343 345 349 360 342 353 338 338 339 130 79 281 83 62 24 38 306 2 16 355 315 306 345 284 309 312 300 283 279 275 287 281 274 270 285 268 272 265 226 246 241 241 238 239 236
349 350 344 349 3 322 331 330 317 47 280 346 83 20 21 347 6 350 359 356 316 276 280 291 311 292 307 314 284 275 287 279 267 264 248 249 227 258 229 236 257 243 240 243 242
342 348 351 350 335 319 347 345 39 97 291 348 15 355 354 329 341 14 338 341 333 352 328 322 311 309 282 325 338 331 322 283 243 216 240 236 228 240 262 255 239 244 240 237 240
349 354 24 342 340 343 1 51 71 247 5 39 8 336 333 4 331 344 346 343 324 359 322 338 322 333 303 294 288 287 255 265 280 243 259 238 236 244 233 247 263 263 264 268 244
354 1 21 347 348 37 1 48 185 282 51 1 350 353 338 350 2 1 327 288 338 357 35 326 313 301 291 296 282 269 244 232 250 264 277 274 253 256 256 264 269 268 261 254 252
355 355 19 359 17 31 64 305 111 9 354 38 139 137 339 324 4 33 309 285 326 340 27 276 303 298 300 313 278 202 262 291 219 278 257 270 261 252 230 232 238 248 252 246 258
8 359 355 355 358 47 120 227 313 1 22 94 254 286 251 265 79 339 260 301 299 325 339 291 244 299 323 310 292 309 285 262 285 242 253 260 265 221 240 297 351 303 337 322 285
0 356 324 326 7 62 92 189 333 312 330 274 194 203 234 293 290 280 247 190 299 316 317 269 274 295 302 296 277 268 298 287 272 310 270 243 255 280 30 62 50 359 341 327 318
346 319 322 341 75 335 337 316 253 275 269 333 306 205 195 283 319 198 256 276 303 29 297 302 342 324 320 332 352 325 310 300 280 284 274 246 258 260 254 347 21 348 341 334 322
351 358 333 358 6 105 332 275 313 285 273 240 254 270 357 304 229 266 275 295 298 303 301 324 234 258 278 285 293 297 298 295 286 279 284 254 258 283 274 305 347 345 337 325 323
13 325 329 294 325 328 307 269 297 289 242 261 317 248 226 272 300 264 287 286 299 296 306 216 274 280 271 278 287 283 294 300 296 272 255 284 221 257 311 316 315 356 337 314 316
325 340 301 282 285 269 291 272 295 301 256 293 250 286 255 232 244 278 283 296 282 302 297 226 273 308 293 291 290 298 298 292 281 301 247 271 242 214 175 41 13 30 357 350 335
301 309 272 271 335 55 240 273 288 298 287 263 276 287 285 273 267 275 274 266 262 271 282 278 226 341 273 299 312 296 351 315 334 311 339 336 256 179 342 64 33 23 20 14 18